Regional Weather Roundup
Issued by NWS

Home | Current Version | Previous Version | Text Only | Print | Product List | Glossary Off
Versions: 1 2 3 4 5 6 7 8 9 10 11 12 13 14 15 16 17 18 19 20 21 22 23 24 25 26 27 28 29 30 31 32 33 34 35 36 37 38 39 40 41 42 43 44 45 46 47 48 49 50

000
ASUS45 KCYS 300310
RWRWY

WYOMING REGIONAL WEATHER ROUNDUP
NATIONAL WEATHER SERVICE CHEYENNE WY
900 PM MDT FRI MAY 29 2015

NOTE:  "FAIR" INDICATES FEW OR NO CLOUDS BELOW 12,000 FEET
WITH NO SIGNIFICANT WEATHER AND/OR OBSTRUCTIONS TO VISIBILITY.

WYZ001-300400-
YELLOWSTONE NATIONAL PARK

CITY           SKY/WX    TMP DP  RH WIND       PRES   REMARKS
LK YELLOWSTONE   N/A     43  40  89 NW3       30.29F
W YELLOWSTONE  NOT AVBL

$$
WYZ002>013-054>058-071-098>099-300400-
NORTHERN WYOMING

CITY           SKY/WX    TMP DP  RH WIND       PRES   REMARKS
JACKSON        FAIR      52  45  76 N5        30.21S
CODY           FAIR      55  48  76 NE7       30.19F
GREYBULL       FAIR      64  44  48 S8        30.16S
WORLAND        FAIR      59  48  67 S10       30.18F
SHERIDAN       FAIR      52  44  74 SE7       30.22F
BUFFALO        FAIR      49  45  86 S12       30.26F
GILLETTE       FAIR      45  39  79 SE3       30.25F
HULETT         FAIR      45  36  70 E6        30.28F
NEWCASTLE      FAIR      45  43  93 S6        30.29S

$$
WYZ014>020-022>026-101>103-300400-
CENTRAL WYOMING

CITY           SKY/WX    TMP DP  RH WIND       PRES   REMARKS
BIG PINEY      FAIR      56  40  55 CALM      30.28S
PINEDALE       MOCLDY    52  39  62 CALM      30.29S
DUBOIS         DRIZZLE   46  43  87 SE5       30.30S
LANDER         CLOUDY    57  45  64 CALM      30.24S
RIVERTON       FAIR      56  44  64 NE5       30.25S
CASPER         FAIR      46  42  86 NE7       30.29F
DOUGLAS        FAIR      51  44  77 CALM      30.29F

$$
WYZ021-027>030-104>119-300400-
SOUTHERN WYOMING

CITY           SKY/WX    TMP DP  RH WIND       PRES   REMARKS
EVANSTON       MOCLDY    59  41  51 E6        30.26S
KEMMERER       CLOUDY    55  37  50 SE5       30.28S
FORT BRIDGER   CLEAR     55  43  62 SE7       30.30S
ROCK SPRINGS   FAIR      53  39  59 E10       30.28S
DIXON          FAIR      50  44  80 NE9       30.32S
RAWLINS        FAIR      48  40  73 E8        30.32S
SARATOGA       FAIR      46  39  76 NW5       30.33S
LARAMIE        FAIR      44  39  82 NE7       30.34S
CHEYENNE       CLOUDY    47  44  90 NE6       30.33R
TORRINGTON     FAIR      49  45  86 CALM      30.29S
PINE BLUFFS    CLOUDY    46  43  87 N8        30.33R

$$



USA.gov is the U.S. government's official web portal to all federal, state and local government web resources and services.